Location: Silent Lake
(44.9206°N, 78.0708°W)
Time: 13:26:52
(UTC-04:00)

Cosmos 2278 Rocket - Pass Details

Date: 19 April 2018
Orbit: 842 x 844 km, 71.0° (Epoch: 20 September)

Event Time Altitude Azimuth Distance (km) Brightness Sun altitude
Rises 20:48:53 0° 339° (NNW) 3,410 6.1 -8.4°
Reaches altitude 10° 20:51:32 10° 348° (NNW) 2,471 5.2 -8.8°
Maximum altitude 20:56:46 37° 55° (NE) 1,292 3.0 -9.7°
Enters shadow 21:01:16 13° 118° (ESE) 2,226 3.7 -10.4°
